TimePST,TemperatureF,Dew PointF,Humidity,Sea Level PressureIn,VisibilityMPH,Wind Direction,Wind SpeedMPH,Gust SpeedMPH,PrecipitationIn,Events,Conditions,WindDirDegrees,DateUTC
12:58 AM,49.5,40.5,71,30.19,10.0,ENE,5.8,-,N/A,,Clear,60,2012-12-04 08:58:00
1:58 AM,50.9,41.0,69,30.21,10.0,ENE,1.2,-,N/A,,Clear,60,2012-12-04 09:58:00
2:58 AM,49.5,41.0,73,30.21,10.0,Calm,Calm,-,N/A,,Clear,0,2012-12-04 10:58:00
3:58 AM,49.5,40.8,72,30.23,10.0,Calm,Calm,-,N/A,,Clear,0,2012-12-04 11:58:00
4:58 AM,49.1,40.5,72,30.26,10.0,NW,4.6,-,N/A,,Clear,320,2012-12-04 12:58:00
5:58 AM,46.8,39.7,77,30.27,10.0,North,4.6,-,N/A,,Clear,350,2012-12-04 13:58:00
6:58 AM,48.4,40.5,74,30.28,10.0,NW,2.3,-,N/A,,Clear,310,2012-12-04 14:58:00
7:58 AM,50.9,40.6,68,30.30,10.0,WNW,3.5,-,N/A,,Clear,290,2012-12-04 15:58:00
8:55 AM,53.6,42.8,67,30.31,10.0,Calm,Calm,-,N/A,,Clear,10,2012-12-04 16:55:00
9:55 AM,55.4,42.8,63,30.32,10.0,South,2.3,-,N/A,,Clear,180,2012-12-04 17:55:00
10:55 AM,64.4,42.8,45,30.29,10.0,Calm,Calm,-,N/A,,Clear,0,2012-12-04 18:55:00
11:55 AM,64.4,42.8,45,30.27,10.0,West,1.2,-,N/A,,Clear,260,2012-12-04 19:55:00
12:55 PM,66.2,44.6,46,30.25,10.0,Variable,2.3,-,N/A,,Clear,0,2012-12-04 20:55:00
1:55 PM,68.0,42.8,40,30.22,10.0,ENE,2.3,-,N/A,,Clear,60,2012-12-04 21:55:00
2:55 PM,67.6,43.0,41,30.19,10.0,ENE,4.6,-,N/A,,Scattered Clouds,70,2012-12-04 22:55:00
4:55 PM,63.3,43.7,49,30.23,10.0,Calm,Calm,-,N/A,,Scattered Clouds,0,2012-12-05 00:55:00
5:55 PM,59.4,41.9,52,30.23,10.0,ENE,4.6,-,N/A,,Scattered Clouds,70,2012-12-05 01:55:00
6:55 PM,58.1,41.7,54,30.24,10.0,NNE,3.5,-,N/A,,Scattered Clouds,30,2012-12-05 02:55:00
7:55 PM,57.0,41.5,56,30.24,10.0,NE,5.8,-,N/A,,Scattered Clouds,40,2012-12-05 03:55:00
8:55 PM,55.6,41.2,58,30.25,10.0,Calm,Calm,-,N/A,,Scattered Clouds,0,2012-12-05 04:55:00
8:58 PM,55.6,41.2,58,30.21,10.0,NNE,2.3,-,N/A,,Clear,30,2012-12-05 04:58:00
9:55 PM,53.6,41.0,62,30.21,10.0,NE,3.5,-,N/A,,Clear,50,2012-12-05 05:55:00
10:58 PM,55.2,41.2,59,30.20,10.0,WNW,3.5,-,N/A,,Clear,300,2012-12-05 06:58:00
11:58 PM,51.8,40.6,66,30.19,10.0,Calm,Calm,-,N/A,,Clear,0,2012-12-05 07:58:00